Location: Düngen
(52.0952°N, 10.0219°E)
Time: 03:57:26
(UTC+00:00)

Cosmos 2082 Rocket - Visible Passes

Search period start: 06 June 2026 00:00
Search period end: 16 June 2026 00:00
Orbit: 832 x 852 km, 71.0° (Epoch: 5 June)

Date Brightness Start Highest point End Pass type
(mag) Time Alt. Az. Time Alt. Az. Time Alt. Az.
6 Jun 2.1 00:16:39 10° NNW 00:22:18 73° WSW 00:27:18 13° SSE visible
6 Jun 4.0 02:02:36 10° WNW 02:05:22 14° W 02:08:08 10° SW visible
6 Jun 4.8 20:34:13 10° N 20:36:36 13° NNE 20:39:00 10° NE visible
6 Jun 3.9 22:17:52 10° NNW 22:22:44 28° NE 22:27:32 10° E visible
7 Jun 2.1 00:01:44 10° NNW 00:07:23 76° WSW 00:12:04 15° SSE visible
7 Jun 3.9 01:47:32 10° WNW 01:50:29 15° W 01:53:27 10° SW visible
7 Jun 4.8 20:19:17 10° N 20:21:37 12° NNE 20:23:57 10° NE visible
7 Jun 4.0 22:02:58 10° NNW 22:07:46 27° NE 22:12:32 10° E visible
7 Jun 2.1 23:46:48 10° NNW 23:52:28 79° WSW 23:56:55 17° SSE visible
8 Jun 3.9 01:32:28 10° WNW 01:35:37 15° W 01:38:42 10° SW visible
8 Jun 4.0 21:48:04 10° NNW 21:52:49 27° NE 21:57:32 10° E visible
8 Jun 2.1 23:31:52 10° NNW 23:37:33 82° WSW 23:41:50 18° SSE visible
9 Jun 3.9 01:17:26 10° WNW 01:20:44 16° W 01:23:37 11° SW visible
9 Jun 4.0 21:33:09 10° NNW 21:37:51 26° NE 21:42:31 10° E visible
9 Jun 2.1 23:16:57 10° NNW 23:22:38 85° WSW 23:26:49 19° SSE visible
10 Jun 3.9 01:02:24 10° WNW 01:05:51 17° W 01:08:36 12° SW visible
10 Jun 4.0 21:18:14 10° NNW 21:22:54 25° NE 21:27:31 10° E visible
10 Jun 2.2 23:02:02 10° NNW 23:07:42 88° WSW 23:11:51 19° SSE visible
11 Jun 3.8 00:47:22 10° WNW 00:50:59 18° W 00:53:39 13° SW visible
11 Jun 4.0 21:03:20 10° NNW 21:07:56 25° NE 21:12:30 10° E visible
11 Jun 2.2 22:47:07 10° NNW 22:52:47 89° ENE 22:56:57 19° SSE visible
12 Jun 3.8 00:32:21 10° WNW 00:36:06 18° W 00:38:44 14° SW visible
12 Jun 4.0 20:48:25 10° NNW 20:52:58 24° NE 20:57:29 10° E visible
12 Jun 2.2 22:32:11 10° NNW 22:37:52 86° ENE 22:42:04 18° SSE visible
13 Jun 3.8 00:17:21 10° WNW 00:21:12 19° W 00:23:52 14° SW visible
13 Jun 4.0 20:33:31 10° NNW 20:38:00 23° NE 20:42:27 10° E visible
13 Jun 2.2 22:17:16 10° NNW 22:22:56 83° ENE 22:27:14 18° SSE visible
14 Jun 3.8 00:02:21 10° NW 00:06:19 20° W 00:09:02 14° SW visible
14 Jun 2.2 22:02:20 10° NNW 22:08:00 80° ENE 22:12:26 17° SE visible
14 Jun 3.7 23:47:21 10° NW 23:51:26 21° W 23:54:15 15° SW visible
15 Jun 2.3 21:47:25 10° NNW 21:53:05 77° ENE 21:57:41 16° SE visible
15 Jun 3.7 23:32:21 10° NW 23:36:33 22° WSW 23:39:29 15° SW visible
